Theta_e
327 320 314 316 314 312 310 304 295 292 286 286 284 285 288 292 291 293 294 294 294 297 297 301 298 300 299 297 298 301 306 301 297 293 288 299 322 335 335 335 340 343 343 342 340 341 342 346 350 349 349 349 349 348 348 348 347 347 348 347 347 348 347 346 345 345 345 344 344 344 343 342 341 341 346 346 346 346 346 344 342 341 340 340 339 340 341 341 340 342 343 343 342 341 339 338 338
321 316 313 315 314 309 306 297 289 283 283 283 285 284 288 290 293 291 292 292 294 299 301 306 307 309 309 310 310 306 302 317 312 311 323 329 331 332 335 338 341 341 342 342 340 339 340 345 348 349 349 349 349 349 349 348 347 347 347 347 347 347 346 346 346 346 345 345 344 343 343 343 345 346 346 346 346 346 345 344 343 342 341 341 340 340 340 340 341 341 342 342 342 340 338 339 338
319 315 315 312 311 306 302 298 293 281 284 282 282 284 290 292 290 290 290 294 296 300 303 302 300 300 303 304 302 300 297 323 324 324 327 333 329 331 337 340 342 342 342 343 342 339 340 343 346 349 350 349 349 350 349 348 347 347 347 347 347 347 346 345 345 345 345 345 344 344 343 342 345 346 346 346 346 346 345 343 340 340 340 339 339 338 340 340 340 341 341 341 342 341 342 340 339
314 317 312 308 308 300 296 290 286 285 285 279 282 288 291 290 291 291 293 294 297 296 297 300 298 298 304 302 305 310 314 320 323 328 327 330 329 336 339 341 341 342 343 344 343 339 341 343 346 349 349 349 349 349 349 348 347 347 347 346 346 346 346 346 345 344 344 344 343 343 342 344 344 346 346 346 345 344 344 342 341 341 340 339 339 340 341 339 340 340 340 340 341 341 341 341 341
315 319 310 306 303 302 294 289 283 280 282 281 284 285 289 290 294 292 297 296 294 294 297 297 302 304 306 306 305 303 304 316 326 327 328 329 335 340 341 341 342 342 342 344 343 340 340 343 346 348 349 350 349 349 348 348 347 347 346 346 346 346 346 346 345 345 344 343 343 343 342 343 345 345 346 345 344 344 343 342 340 339 339 340 340 340 340 340 341 340 342 342 343 342 341 342 340
310 311 312 310 303 302 293 289 288 284 282 285 285 289 290 294 294 293 297 296 297 294 295 296 301 303 306 308 308 305 312 315 323 323 326 327 337 341 341 341 341 341 342 344 344 343 341 342 344 348 349 349 349 349 348 348 347 347 346 346 346 346 346 345 345 344 344 343 342 343 342 341 341 346 345 345 344 343 343 340 339 338 338 338 337 339 340 340 341 340 341 342 342 341 341 341 341
311 306 304 302 302 298 293 283 284 283 290 287 288 290 295 294 294 293 295 297 297 297 295 301 301 302 302 305 308 313 315 319 321 321 325 330 338 340 341 341 341 340 342 343 344 343 341 342 347 349 349 349 349 349 348 348 347 346 346 346 346 346 346 345 345 344 344 343 342 342 341 340 341 343 344 343 343 342 341 340 339 338 338 338 337 338 339 340 340 340 340 341 341 340 340 340 340
311 307 303 296 293 290 285 283 285 284 290 289 290 295 294 295 292 293 293 294 296 297 298 299 297 295 297 306 302 310 315 318 321 323 329 335 337 338 339 340 340 340 342 343 343 342 344 341 346 348 349 349 349 348 348 348 347 346 346 346 345 345 345 345 344 343 343 342 342 342 341 340 339 342 342 342 341 340 340 339 338 338 336 337 336 338 338 339 339 339 339 340 339 339 339 339 339
306 305 300 296 292 286 282 286 288 286 287 291 293 295 302 295 292 293 293 293 295 294 296 299 294 296 295 304 303 309 313 319 324 326 332 333 336 337 338 338 339 340 342 343 343 342 341 339 344 347 347 348 349 348 348 348 347 346 346 345 345 345 344 344 344 343 342 342 341 341 340 339 339 339 340 340 339 339 338 337 337 337 336 336 337 337 337 337 338 339 340 339 339 338 337 338 337
303 302 295 293 288 288 281 285 286 289 289 291 293 295 296 293 292 293 292 294 295 294 296 294 294 296 298 301 305 311 318 319 324 328 330 333 335 336 336 337 339 340 341 342 343 343 341 344 341 344 346 348 348 348 348 347 347 346 346 345 345 344 344 344 343 342 341 341 340 340 340 339 338 338 338 338 337 337 337 337 337 337 336 336 337 338 338 337 337 338 338 338 338 337 337 336 337
298 297 296 294 284 283 285 285 282 286 291 290 292 293 295 292 292 291 293 294 294 295 297 296 299 300 301 301 303 308 314 319 325 328 328 332 334 334 336 337 339 341 340 342 343 343 342 341 342 341 343 344 346 347 347 347 347 346 345 345 345 344 344 343 343 342 341 340 340 340 339 339 338 338 338 337 336 336 335 335 335 336 335 336 336 336 336 336 336 338 338 338 337 337 336 336 336
297 295 293 286 285 284 282 284 287 287 289 291 295 295 292 294 292 293 293 294 294 295 295 298 299 300 299 298 301 307 314 321 322 328 326 329 332 334 336 337 339 339 341 342 342 342 343 341 340 341 339 341 341 344 345 345 346 346 345 345 344 344 343 343 342 341 340 339 339 339 339 338 338 338 337 336 335 335 334 334 334 334 334 335 336 336 336 336 336 337 337 336 336 336 335 335 334
296 293 288 287 289 287 285 285 287 290 287 290 293 295 292 292 293 293 292 293 292 294 295 295 301 300 296 298 300 308 317 322 322 324 325 328 330 333 335 338 339 339 340 341 342 342 343 341 340 340 338 336 337 339 340 342 343 345 345 345 344 344 343 342 341 341 340 339 339 339 338 339 338 337 337 336 335 335 335 334 333 333 333 335 336 335 335 335 336 336 336 335 335 335 335 334 333
297 294 292 293 286 284 284 286 284 288 286 289 289 292 293 293 293 293 293 294 293 292 294 295 302 299 299 299 301 307 317 321 321 322 324 327 328 332 334 337 338 339 339 340 341 342 342 342 341 339 337 338 338 336 334 338 340 343 343 342 342 342 342 342 341 340 340 339 339 337 337 337 337 337 336 335 335 335 333 333 333 333 333 332 335 335 334 335 335 335 334 334 334 334 333 333 332
302 295 288 286 285 286 285 286 289 284 288 287 294 292 293 295 292 292 296 293 294 292 298 299 299 299 293 298 293 307 318 322 321 320 323 325 327 331 334 336 337 338 338 339 340 341 342 342 342 340 337 337 337 336 336 337 336 338 339 339 339 340 340 339 338 338 336 336 335 334 333 332 332 333 333 333 334 333 332 330 332 332 332 332 333 333 333 334 334 333 334 333 333 332 332 331 330
299 293 289 291 287 285 287 288 283 285 288 289 294 291 293 294 291 294 294 294 295 296 296 298 298 297 297 298 299 304 319 322 320 321 323 324 325 327 333 336 337 337 337 338 339 340 341 341 341 340 339 337 335 335 336 336 334 333 336 337 337 337 336 336 335 334 330 328 327 327 326 326 326 325 325 327 328 330 328 326 329 331 330 331 332 332 332 332 333 333 332 332 331 330 329 328 327
297 294 294 284 288 286 288 287 287 287 287 289 290 292 293 293 294 294 294 295 297 295 298 299 297 307 298 300 304 306 320 320 320 321 322 323 326 328 331 334 335 335 336 337 338 339 340 340 338 339 339 337 334 335 336 336 335 332 332 332 332 332 332 332 331 326 322 321 321 321 322 323 322 322 322 322 321 322 321 323 327 330 330 331 331 330 331 331 331 330 329 329 327 325 321 321 321
296 291 287 287 284 286 287 288 289 288 290 291 291 291 292 292 294 297 297 295 292 294 297 295 306 310 314 311 309 312 320 321 321 322 320 321 324 326 329 332 332 332 333 334 336 338 338 339 338 339 338 337 336 338 339 338 335 334 334 333 332 329 327 325 325 325 325 322 321 322 322 321 321 320 320 323 320 321 321 321 323 327 330 330 329 329 329 328 328 328 327 325 323 320 316 311 312
290 286 286 288 284 290 291 288 289 291 291 292 292 289 293 293 293 295 294 292 294 295 296 294 301 305 311 313 314 318 321 320 321 321 320 321 324 326 328 330 331 333 332 333 334 336 337 338 338 338 338 337 337 338 339 338 336 336 335 335 331 327 325 324 323 323 322 322 321 320 320 320 320 319 319 320 320 319 321 321 323 326 328 327 327 326 326 326 325 325 323 321 318 315 309 308 308
292 291 289 284 289 289 289 290 291 290 292 292 291 291 292 293 294 295 295 291 292 293 292 294 297 299 308 311 313 317 320 319 320 320 320 321 324 327 329 330 330 332 334 334 334 336 337 336 337 338 338 337 337 337 338 337 337 337 336 335 332 327 324 323 322 321 321 320 320 320 319 319 319 318 320 320 320 319 320 317 316 316 317 318 318 319 322 322 322 320 318 315 312 308 307 306 307
293 290 284 290 288 292 293 289 290 290 290 292 291 290 292 293 292 294 290 292 291 291 291 297 296 296 309 311 313 315 318 318 318 319 320 321 322 326 330 331 332 334 335 335 334 334 336 336 337 337 338 337 337 337 336 336 338 337 337 335 332 329 325 322 320 320 320 319 319 319 319 318 318 317 316 316 316 316 314 311 309 307 306 306 309 306 306 307 307 305 306 307 305 306 306 305 306
291 292 289 289 289 292 293 290 291 290 289 291 289 293 292 293 294 290 292 291 290 294 296 295 298 301 312 312 313 314 317 317 318 318 319 320 321 324 328 331 332 333 334 334 334 334 335 336 336 337 338 337 337 337 336 336 337 337 336 335 332 330 327 323 320 319 319 319 319 319 318 317 316 315 315 314 313 313 311 307 305 304 303 303 304 303 303 304 304 304 304 304 303 303 303 303 304
294 290 289 287 289 293 292 292 291 288 290 290 289 292 293 292 293 289 292 293 292 292 293 296 296 308 314 315 315 314 315 316 317 318 319 320 320 322 326 330 331 331 333 334 335 335 336 336 336 337 337 337 337 338 337 336 337 337 336 335 333 330 328 324 320 319 319 319 318 318 318 317 315 314 313 312 311 310 308 305 304 303 301 301 302 303 302 302 303 303 303 302 302 303 303 303 304
288 291 290 294 289 293 291 293 288 288 291 289 290 292 293 291 294 291 289 292 291 289 291 291 294 312 314 314 314 315 316 316 317 319 320 321 322 322 324 327 330 332 331 333 334 335 334 336 337 336 336 336 336 337 337 336 337 337 336 333 333 330 328 325 322 320 320 319 318 318 318 317 316 314 312 311 310 308 306 305 304 301 300 300 301 302 301 301 302 302 302 302 302 303 303 303 303
292 292 291 292 291 292 289 289 288 290 290 291 291 293 293 290 292 291 291 295 295 293 295 293 303 313 312 313 314 314 314 315 316 317 317 319 320 319 317 318 323 327 329 332 333 334 335 336 336 336 337 336 337 337 336 336 337 336 335 334 334 329 330 327 324 322 321 320 318 318 317 317 315 314 312 310 308 307 305 304 302 300 299 299 300 300 301 301 301 301 302 301 301 302 302 302 301
289 293 290 291 293 291 290 292 289 289 293 290 292 292 290 290 290 292 295 294 293 294 295 298 307 310 311 312 314 314 314 315 316 315 317 318 313 315 317 318 320 323 328 331 332 333 335 336 336 336 337 337 337 337 336 336 337 336 335 334 335 331 332 330 325 322 323 321 318 318 318 317 315 314 311 309 308 306 304 304 302 299 299 298 299 300 299 301 300 300 300 300 301 301 301 300 300
289 290 290 292 291 292 291 293 291 289 292 290 292 290 292 291 293 290 289 291 292 295 296 296 305 308 310 311 313 313 314 315 315 317 312 313 314 315 317 317 318 322 324 327 331 333 333 334 336 336 337 336 337 336 336 336 336 336 334 335 335 333 333 332 326 323 324 322 318 318 317 316 316 314 311 309 307 305 304 304 300 299 298 298 299 299 299 300 300 300 300 300 300 300 299 299 300
292 291 291 291 289 292 292 291 292 291 294 290 291 291 290 292 291 292 294 292 292 294 294 296 296 302 307 308 311 312 313 315 315 311 315 314 316 316 316 318 319 320 321 323 328 332 332 333 335 336 337 337 336 336 335 336 336 336 334 334 334 334 334 332 330 324 323 325 320 318 317 316 315 313 311 309 307 305 305 304 300 299 298 297 298 298 298 298 299 299 299 299 298 299 299 298 298
292 293 292 289 286 291 290 293 292 291 294 292 291 291 290 291 290 295 293 290 292 293 292 294 295 295 297 302 306 308 312 312 310 312 315 317 318 318 317 319 319 319 322 323 324 327 330 331 333 335 337 336 336 336 336 336 336 336 334 334 334 333 334 333 332 327 324 327 322 319 318 316 315 313 311 309 307 305 306 304 300 299 298 297 297 297 297 297 297 297 297 297 297 297 297 296 296
292 290 288 289 285 285 292 291 291 293 293 290 291 285 283 286 294 294 292 290 291 293 292 292 294 295 294 295 300 305 307 305 307 312 314 315 316 317 317 318 318 319 320 320 321 323 328 330 332 334 335 335 335 337 336 336 336 336 335 334 333 333 334 334 332 331 326 327 325 321 319 317 316 315 313 310 308 306 306 303 300 299 297 297 297 297 297 297 297 297 296 296 297 296 296 295 295
291 290 286 284 287 285 289 290 291 292 292 292 291 285 283 285 287 289 288 290 292 292 292 291 292 293 293 293 296 299 303 305 307 310 312 313 314 315 316 317 317 318 318 318 320 322 324 327 330 332 331 334 333 335 335 335 335 336 335 334 333 333 333 333 333 333 330 327 328 324 321 319 318 316 314 311 309 308 308 304 301 299 297 297 297 297 297 297 297 296 296 296 296 296 295 294 294
283 287 283 281 284 283 287 289 290 291 293 290 290 284 286 290 291 289 288 290 289 292 291 290 290 292 293 292 293 295 298 301 303 305 306 310 311 312 313 315 316 317 318 320 320 320 322 325 326 329 329 332 333 334 335 334 334 335 335 329 334 333 332 333 333 333 332 329 329 327 324 320 319 318 315 312 309 308 309 306 302 299 297 297 297 297 297 296 296 296 297 297 295 294 293 292 292
282 284 281 285 283 281 287 292 289 292 292 291 291 285 284 288 290 290 288 290 290 291 290 289 290 291 292 293 294 294 295 295 296 300 303 305 307 310 312 313 315 317 319 319 320 320 320 322 324 326 327 329 331 332 333 332 332 333 334 334 334 333 332 332 333 333 333 331 329 329 326 322 320 320 316 314 310 309 309 308 303 299 298 298 297 297 297 297 297 297 295 296 296 294 293 291 291
287 282 283 281 283 283 284 286 290 289 291 290 289 288 286 288 288 288 290 291 290 290 291 292 292 292 293 293 293 294 295 296 297 298 298 301 305 307 310 311 313 315 317 319 320 320 321 321 323 325 326 327 330 330 330 330 330 331 332 333 331 333 333 333 333 333 332 332 331 330 328 324 321 321 318 315 312 310 310 308 304 300 299 299 298 298 298 298 298 297 296 295 295 294 292 291 290
283 284 283 284 282 282 283 286 291 291 289 289 287 288 290 292 293 293 294 292 291 291 292 293 293 293 293 293 293 293 294 295 297 299 299 298 300 304 307 309 310 313 316 318 319 320 320 320 321 321 323 325 326 327 327 326 326 327 329 331 331 331 332 332 332 332 332 332 331 330 329 326 321 323 320 317 314 311 310 309 304 301 300 299 298 297 297 297 298 298 296 294 294 293 293 292 290
285 286 283 280 283 284 285 285 285 290 288 288 286 288 290 292 292 293 294 292 291 291 291 291 292 293 293 294 294 294 294 295 298 297 297 297 298 300 304 307 309 311 313 316 317 318 318 319 319 320 321 324 324 324 323 322 322 323 324 325 327 328 330 328 330 331 331 331 330 330 330 329 324 323 321 318 317 313 311 309 305 301 300 299 298 297 296 297 296 296 295 294 292 291 292 291 290
285 283 281 282 282 282 283 284 288 288 289 287 287 287 287 290 291 292 293 291 289 289 291 292 292 293 294 294 294 295 294 296 296 296 297 297 298 299 301 305 307 308 310 313 315 316 318 319 318 318 320 321 322 322 321 322 321 321 321 324 325 327 327 328 328 329 330 331 330 330 330 330 328 324 322 320 318 314 313 310 306 302 301 300 299 298 298 298 297 297 295 294 292 290 289 290 290
286 284 284 283 283 285 287 289 287 287 289 283 283 285 287 288 290 291 292 289 291 292 293 293 294 294 294 293 294 294 295 295 294 295 295 294 296 297 299 303 305 307 309 313 314 316 317 318 318 319 318 319 322 322 322 321 323 324 323 324 325 325 325 324 326 327 328 328 328 329 329 329 329 326 323 321 319 317 314 310 306 303 302 301 300 299 298 298 297 295 294 292 293 292 289 289 289
283 285 282 283 283 282 285 288 286 288 288 285 282 286 290 290 291 292 292 294 295 294 293 295 294 294 293 293 292 293 293 294 294 294 293 294 295 296 299 303 306 309 309 312 314 314 314 315 317 317 317 318 320 321 321 321 320 317 319 315 323 319 319 322 323 321 321 324 325 327 328 329 328 326 324 321 320 318 315 311 307 304 302 301 299 299 299 297 296 295 294 293 291 292 290 290 289
282 282 283 283 282 286 285 284 286 288 287 286 284 287 291 290 289 291 294 293 293 292 292 293 293 294 294 294 292 293 292 293 294 294 295 294 293 294 296 301 305 306 307 309 311 314 315 315 315 316 316 316 318 318 317 318 316 309 307 307 311 319 317 315 317 315 317 319 322 322 324 327 328 327 326 322 320 318 316 312 309 305 303 302 301 299 297 296 296 295 294 294 292 289 288 288 290
283 282 280 281 285 285 283 286 285 283 287 284 284 285 287 281 281 283 284 284 288 291 291 291 293 293 294 293 292 292 293 294 294 293 292 292 292 295 298 299 300 305 307 309 311 313 315 315 315 316 315 315 316 314 315 312 309 306 304 305 307 308 311 315 315 315 315 315 317 319 322 321 324 326 326 324 320 319 316 313 310 307 304 302 301 300 298 298 296 295 295 294 293 291 288 288 289
285 283 284 283 282 286 286 284 286 278 281 281 284 280 275 276 281 282 285 285 288 287 288 291 290 290 290 291 293 294 294 294 294 294 294 293 293 293 296 298 302 304 306 308 311 313 312 312 312 312 312 312 313 312 312 311 312 311 309 310 310 308 312 312 313 316 314 314 316 315 315 319 321 323 325 324 322 319 317 314 311 307 305 304 302 301 300 298 296 295 295 294 293 293 291 288 287
283 286 284 282 283 285 285 285 282 279 279 283 283 281 277 280 284 287 287 285 288 290 289 291 292 291 288 291 292 293 293 293 291 292 293 292 293 294 296 298 301 303 306 305 305 308 309 309 310 311 311 311 310 309 310 310 311 311 312 314 315 314 315 314 312 315 318 316 316 315 317 316 318 321 321 323 322 319 318 315 311 308 306 304 302 301 300 298 297 296 295 295 294 294 292 289 289
283 284 283 285 286 286 284 282 284 280 279 281 280 276 277 280 286 283 284 284 287 288 290 290 292 291 289 289 292 293 293 292 292 293 293 293 294 296 299 299 300 303 302 302 304 305 308 308 309 309 309 308 308 308 308 311 312 310 310 311 312 313 313 313 309 310 312 314 315 315 314 315 315 316 318 320 321 320 318 316 313 310 307 305 303 302 301 300 298 297 295 295 295 294 292 292 290
284 285 285 285 285 282 281 281 280 281 281 281 278 282 281 278 283 284 283 285 285 287 290 291 291 287 288 288 290 290 292 292 292 293 293 294 296 297 297 297 299 300 300 303 305 305 305 305 306 306 307 306 306 306 308 308 311 311 311 311 310 310 309 305 302 304 306 308 312 314 313 313 313 313 314 314 316 319 315 315 313 310 308 306 303 303 303 301 298 296 295 295 294 294 293 294 292
288 284 286 284 283 282 280 279 282 277 278 276 279 281 276 277 278 281 279 284 284 287 290 290 290 290 289 289 288 288 287 288 289 291 293 294 295 296 297 297 298 298 297 299 300 301 302 302 304 305 305 305 305 305 306 307 308 307 308 308 310 309 304 300 300 302 304 303 309 312 313 313 312 312 312 312 313 314 316 314 313 312 310 308 304 304 303 301 300 297 296 295 295 294 294 294 293
289 287 288 284 281 281 279 278 276 277 274 276 279 281 280 278 279 281 284 284 285 285 286 287 289 287 286 285 286 287 289 290 290 291 292 293 292 293 295 297 297 297 296 298 299 300 300 303 303 304 304 304 303 305 305 306 306 306 308 308 308 308 305 303 301 300 299 299 304 306 309 312 312 312 311 311 312 313 313 312 313 312 310 306 304 304 303 302 300 298 297 296 295 295 294 293 293
288 285 280 286 283 278 278 272 275 273 270 274 277 279 279 275 276 280 283 284 284 287 288 290 289 289 289 289 293 292 292 292 292 294 295 294 296 294 294 296 296 296 296 297 296 297 299 299 301 302 301 302 301 303 303 305 306 306 306 307 307 307 306 304 304 304 302 302 302 302 302 303 307 310 310 311 311 311 311 312 310 311 310 309 306 305 304 303 301 299 297 296 295 295 295 293 293
284 284 284 277 272 270 274 270 275 272 273 279 278 279 279 281 283 284 284 286 286 286 289 290 289 289 290 294 294 293 291 291 294 294 294 294 294 294 295 295 295 295 296 296 297 296 296 298 300 302 302 300 301 301 303 304 304 305 305 305 306 305 304 304 305 305 303 303 302 301 300 302 303 305 307 309 311 311 310 310 311 311 310 309 308 306 305 304 302 300 298 296 296 295 295 294 293
283 286 279 274 271 269 265 262 263 267 274 277 280 281 280 280 281 288 291 292 288 285 286 287 288 289 289 292 292 292 291 291 291 290 290 290 291 292 293 293 294 294 295 295 295 296 297 298 299 301 302 300 300 301 302 303 303 304 304 304 305 304 304 304 305 305 304 303 302 302 302 302 302 304 305 306 308 309 310 310 310 311 311 310 308 307 305 304 303 301 299 297 296 296 296 294 293
286 283 286 280 270 267 267 263 271 272 272 275 276 276 275 278 283 287 288 290 287 287 288 287 287 287 288 287 288 290 290 290 289 290 293 293 293 291 293 293 293 293 294 295 295 296 296 298 298 299 300 299 300 301 301 302 303 302 303 304 304 304 304 304 304 304 304 302 302 302 302 302 302 303 303 303 303 305 306 309 310 310 310 310 308 307 305 304 302 301 300 298 297 297 296 295 294
283 280 281 278 279 274 273 267 268 267 270 270 274 277 277 282 283 285 286 286 287 286 287 286 287 285 285 287 289 290 291 292 292 292 294 293 292 292 292 292 292 293 293 293 295 297 297 299 298 299 300 299 299 299 300 302 302 302 302 302 303 303 302 302 302 301 302 302 302 302 302 302 302 302 302 301 303 304 305 307 308 308 310 310 309 307 306 304 303 301 300 299 297 297 296 295 294
284 284 280 281 281 279 271 271 272 270 270 274 271 278 282 280 284 289 289 286 288 286 286 287 288 286 284 287 289 288 290 291 294 295 295 294 293 291 292 292 292 292 293 295 297 298 299 298 298 298 299 297 298 299 300 300 301 300 301 302 302 302 302 302 303 302 302 302 302 302 302 302 302 301 301 301 302 302 304 306 307 308 308 309 309 307 306 305 303 301 300 299 298 297 296 295 295
284 280 283 284 283 280 277 274 265 264 270 272 272 277 277 275 280 281 285 285 287 286 287 286 286 285 287 291 291 289 290 293 293 293 293 293 292 292 292 292 292 293 293 294 296 296 297 298 298 299 298 299 299 299 299 300 300 300 301 301 301 302 303 303 303 303 302 301 301 301 301 301 301 301 301 301 301 301 302 302 305 306 307 307 307 307 305 304 303 302 301 300 299 298 296 296 295
284 281 284 286 279 278 277 271 270 266 266 268 271 274 274 279 281 280 284 284 289 290 289 286 289 289 289 290 289 290 287 288 290 292 294 295 294 295 294 293 292 292 293 293 295 295 296 296 296 297 299 299 299 299 298 299 299 301 301 301 301 301 302 302 302 302 301 301 301 301 301 302 301 300 299 299 299 299 300 301 303 304 305 306 306 306 305 304 303 302 301 300 299 298 297 295 295
287 287 285 284 280 273 274 277 271 272 268 264 272 268 279 280 280 283 286 284 287 289 288 289 290 289 289 290 289 287 288 289 289 290 292 294 294 294 293 293 292 292 292 293 293 294 296 297 296 297 296 296 296 297 298 298 299 299 300 299 299 300 301 302 301 301 301 301 302 301 301 300 300 299 299 299 299 298 298 299 300 302 303 304 304 304 304 303 302 302 300 299 299 298 296 295 295
284 284 282 285 281 282 279 277 275 275 264 264 268 271 275 277 281 283 288 287 285 286 289 290 292 292 290 288 288 288 288 288 289 289 290 291 292 292 292 291 291 290 289 290 292 294 295 295 296 296 297 298 298 298 298 299 297 298 298 298 299 299 299 300 300 300 300 301 301 300 301 301 297 298 297 298 298 298 299 299 300 300 301 302 302 302 302 301 300 299 299 298 298 297 296 296 295
288 287 285 287 282 278 275 277 277 268 272 270 265 274 279 278 282 286 285 287 287 287 289 289 290 290 287 286 287 287 288 288 288 289 289 290 290 290 289 288 287 288 291 291 293 292 292 294 296 296 296 298 298 298 298 298 297 297 297 298 298 298 298 298 298 299 299 300 300 299 299 297 298 298 297 298 298 298 298 299 299 300 300 300 301 302 300 299 298 298 298 298 297 296 295 295 294
Wind_Speed
5 4 3 1 4 2 2 6 2 2 4 0 1 1 2 0 1 1 2 1 1 1 1 1 1 2 2 3 6 4 0 8 6 8 4 1 1 6 7 5 7 7 8 3 3 2 3 6 10 11 12 13 12 12 11 11 11 12 12 13 13 13 14 14 14 14 14 14 14 14 14 14 12 13 15 16 16 16 17 19 19 19 19 18 19 19 19 19 19 19 19 20 20 20 20 21 20
3 3 4 0 1 1 1 2 3 2 6 2 2 1 2 2 1 4 5 3 2 1 1 5 6 7 10 12 8 4 2 3 2 1 1 0 3 4 5 7 9 10 8 4 2 2 3 4 9 11 13 13 12 12 12 11 11 12 12 12 13 12 13 13 14 14 14 14 14 14 14 12 14 13 13 15 16 17 17 18 20 19 19 19 19 20 19 18 18 19 19 20 20 19 20 20 20
2 3 3 3 3 4 2 4 1 1 5 1 3 4 1 2 4 5 3 2 3 5 4 3 4 4 2 2 2 1 1 1 3 2 1 2 9 5 5 7 7 7 8 5 3 3 3 4 7 11 13 13 13 13 12 12 12 12 12 12 12 13 13 13 13 13 13 13 13 13 12 13 15 15 15 16 17 17 17 19 19 18 18 18 19 18 18 18 18 18 19 19 19 19 19 19 19
1 3 3 3 2 3 1 3 4 8 4 6 0 2 1 4 5 4 3 2 2 2 1 0 3 2 1 4 1 2 3 2 1 3 5 7 3 7 7 8 7 6 6 5 4 3 3 4 7 10 13 13 13 13 12 12 12 12 12 12 11 12 12 13 13 13 12 12 13 12 12 13 13 15 16 16 17 17 18 19 18 18 18 18 19 18 18 18 17 18 17 17 18 18 19 19 18
1 1 2 3 3 1 2 0 5 3 3 5 6 3 3 4 5 4 1 1 3 3 1 1 3 4 0 4 1 0 4 0 1 0 2 1 2 7 8 8 7 7 7 6 4 3 3 7 8 9 12 13 13 12 12 12 12 12 12 11 11 11 12 12 13 13 12 12 12 12 12 13 14 15 16 16 16 17 19 19 18 17 18 19 19 18 18 17 17 16 18 17 18 17 18 18 19
4 2 4 1 0 2 6 1 1 3 5 5 4 4 4 6 5 6 1 1 1 2 3 1 3 4 1 1 1 1 2 4 3 2 4 4 8 8 10 8 8 8 7 6 5 3 4 7 8 9 13 13 13 12 12 12 12 11 12 11 11 11 12 12 12 12 12 12 12 12 12 12 14 15 15 16 16 17 18 18 18 17 17 18 18 17 17 17 16 16 17 18 18 18 18 18 19
1 4 3 4 2 4 4 2 4 3 1 6 3 4 7 5 5 3 2 1 1 1 0 1 3 4 4 1 1 0 1 1 2 2 4 4 9 9 9 8 8 8 7 6 5 4 4 7 8 9 10 11 12 12 12 12 12 11 11 11 11 11 11 12 12 12 12 12 12 12 12 12 13 15 16 16 17 17 18 18 17 16 17 17 17 17 16 16 16 16 17 17 18 18 19 18 19
2 2 1 1 1 3 3 1 2 3 0 4 2 6 6 6 4 3 3 2 1 1 1 1 1 4 0 3 2 2 4 1 2 1 6 9 8 9 9 8 8 9 9 6 5 3 6 8 9 9 9 11 11 12 12 12 12 11 11 12 11 11 11 11 12 12 12 12 12 12 12 12 13 12 14 15 16 17 17 16 16 15 15 16 17 17 16 16 16 16 16 18 18 17 18 18 18
4 5 0 3 1 3 2 1 1 2 4 1 2 2 3 4 4 5 2 0 0 0 1 2 1 2 2 1 1 2 4 2 1 3 9 8 10 9 7 8 8 8 7 6 5 4 4 7 8 9 10 11 11 12 13 13 13 12 12 12 11 11 11 11 12 12 12 12 12 12 12 12 12 11 13 15 15 15 15 16 16 15 15 16 17 16 15 15 15 16 17 18 18 18 18 18 18
2 2 1 1 3 1 2 1 2 2 1 2 4 5 6 4 4 0 4 2 1 2 0 1 2 1 2 2 0 2 1 3 1 5 6 7 8 8 7 8 8 10 9 7 5 4 3 7 8 9 9 10 10 12 13 13 13 13 13 12 12 12 11 12 12 12 12 12 12 12 12 12 12 11 11 12 11 13 14 15 16 15 15 16 17 16 16 15 16 16 17 17 18 18 18 18 18
0 5 3 2 4 2 3 3 3 2 1 2 2 2 2 3 4 2 0 3 1 2 0 3 2 2 2 1 2 3 3 1 4 10 6 7 7 8 8 6 7 9 9 7 6 5 4 4 8 9 9 9 9 10 11 11 13 13 13 13 12 12 12 13 13 12 12 12 12 12 12 12 13 12 12 13 12 13 13 14 14 14 14 16 16 16 15 16 17 18 18 18 19 18 19 18 17
1 1 2 2 1 6 4 4 1 2 3 1 2 1 2 5 2 3 1 5 1 0 2 3 2 5 2 1 1 3 5 1 4 7 5 5 7 7 7 5 7 7 8 8 6 6 5 4 4 7 9 9 9 10 10 10 11 11 11 13 13 13 13 13 13 13 13 12 12 12 12 12 13 13 13 14 13 13 14 14 15 15 14 16 16 15 15 16 18 19 19 18 18 18 17 18 17
2 1 5 4 0 1 1 3 2 1 1 3 4 1 4 4 4 6 4 2 1 3 1 5 5 2 1 2 2 4 1 5 3 5 5 5 5 5 5 6 7 7 8 7 7 7 6 5 5 5 6 10 8 9 9 10 10 10 11 12 12 12 13 13 13 13 13 13 13 12 11 11 11 13 14 14 13 13 15 15 15 15 15 16 17 15 15 16 17 18 18 18 18 17 17 17 17
3 5 5 1 1 3 5 3 1 3 2 3 2 1 5 3 3 5 7 5 3 4 2 2 5 4 1 2 1 2 5 5 4 4 4 4 4 5 6 5 6 6 7 8 8 7 6 5 5 4 5 5 5 8 9 10 11 11 11 11 11 11 12 12 12 11 12 11 11 11 10 10 10 12 12 13 13 12 13 13 14 15 14 14 16 15 14 16 17 18 18 17 17 17 17 17 17
1 2 5 5 1 2 1 4 8 5 4 3 3 6 3 3 3 3 7 6 5 4 1 1 3 2 4 6 4 7 9 7 5 4 4 4 4 5 6 5 6 5 6 7 7 7 6 6 5 5 4 4 5 5 4 8 12 11 11 11 11 11 11 11 11 10 10 10 11 11 11 11 10 11 10 10 10 10 10 10 11 13 14 14 16 15 14 16 17 17 17 17 17 17 17 16 16
4 5 3 1 0 3 3 1 1 2 3 4 0 4 4 1 1 6 4 2 1 1 0 1 1 1 0 6 1 4 10 7 4 5 6 5 3 4 6 6 6 6 5 6 7 6 6 6 5 5 5 5 4 4 5 5 9 11 11 11 11 11 11 11 10 11 10 11 11 12 12 10 10 9 11 9 10 10 9 7 10 11 14 14 15 14 15 16 17 17 17 17 17 17 17 16 16
2 3 1 3 1 2 2 3 5 3 2 3 1 5 6 1 0 1 1 1 6 1 2 0 1 1 3 3 1 3 8 6 6 6 6 5 5 4 4 5 5 5 4 6 6 6 6 7 6 5 5 5 5 4 4 5 7 10 9 10 11 11 11 11 11 11 10 10 10 10 10 7 6 6 7 6 8 6 8 8 9 11 13 14 14 14 15 16 17 16 17 17 17 17 16 16 14
1 1 4 1 1 2 4 6 9 1 4 5 4 5 7 3 0 0 1 4 2 1 1 3 1 1 3 5 2 3 8 10 8 10 7 6 5 5 6 6 7 8 6 6 6 7 7 6 8 7 5 6 5 5 4 4 5 7 6 6 6 8 9 10 8 7 7 6 9 7 6 6 6 5 5 6 5 5 7 9 9 10 10 12 13 14 15 16 16 17 16 16 16 14 13 8 8
3 2 2 5 5 2 5 3 5 2 2 4 4 2 6 5 7 2 3 1 0 1 1 2 2 1 4 3 3 8 11 8 8 9 10 11 9 10 8 7 7 7 8 7 6 8 7 6 7 7 6 6 6 5 5 5 6 5 5 6 5 6 7 7 6 7 5 6 5 5 5 5 5 5 5 5 5 8 8 10 10 9 10 12 12 15 15 16 16 16 16 15 14 12 8 6 6
1 3 2 2 7 2 4 3 3 4 2 5 5 2 2 2 3 1 2 4 0 6 4 2 1 3 0 1 3 6 9 9 8 10 11 11 9 10 10 10 8 10 10 9 9 6 7 7 8 7 7 7 7 6 5 6 6 6 5 6 6 5 5 5 5 6 6 5 6 5 5 5 5 5 7 10 8 6 7 9 11 12 12 12 12 9 12 14 16 15 15 13 8 6 6 6 6
1 2 3 3 4 1 2 3 4 3 4 3 4 1 2 1 3 2 3 5 3 5 6 8 10 7 5 4 5 6 9 9 8 8 9 10 8 7 10 11 13 12 9 7 6 8 9 8 8 8 7 7 7 6 7 6 6 5 5 5 6 6 5 5 5 5 5 5 5 5 5 5 5 5 5 5 5 5 5 5 5 5 5 6 8 7 6 7 7 7 7 7 6 6 7 6 5
4 1 1 1 1 0 1 3 2 1 4 6 3 7 4 1 1 3 8 7 7 9 9 9 8 9 10 10 9 6 9 10 10 10 12 13 14 12 9 7 6 5 6 8 9 9 9 9 9 7 8 8 8 7 8 8 7 6 6 6 7 6 6 5 5 5 5 6 5 6 6 6 5 5 5 5 5 5 5 5 5 5 5 5 5 6 6 6 6 6 6 6 5 5 6 6 5
2 1 0 4 1 0 0 0 2 4 4 6 5 3 3 4 1 2 7 9 5 6 4 9 7 10 12 10 11 9 9 12 12 14 13 13 12 11 12 10 10 10 8 10 8 8 9 9 9 8 8 8 9 7 7 7 7 6 6 6 8 7 6 6 5 5 5 6 6 6 8 6 6 5 6 6 6 5 5 5 5 5 5 5 4 6 6 5 6 6 6 6 5 6 6 6 6
4 3 0 0 3 1 3 1 2 1 9 5 3 2 3 3 3 1 4 8 6 1 2 2 4 4 7 11 11 15 16 15 16 16 16 18 18 18 15 14 11 7 6 9 8 8 8 11 10 10 9 9 8 8 8 7 7 7 7 7 7 7 7 7 6 6 6 6 6 6 6 7 7 6 6 6 6 5 5 4 4 5 5 5 4 5 7 5 6 6 6 5 6 5 6 6 6
2 1 1 0 0 2 3 1 4 2 2 0 4 5 2 4 1 1 6 10 8 4 1 2 6 8 7 9 13 10 9 9 10 11 7 7 8 6 3 5 5 6 9 9 8 9 10 10 11 11 10 10 8 8 8 8 7 7 7 7 7 8 8 7 7 7 7 6 6 6 6 7 6 6 7 6 5 6 5 5 5 5 5 5 5 5 6 7 6 6 6 6 5 6 6 5 5
3 1 3 1 1 2 3 1 4 3 1 2 4 0 2 2 3 3 9 8 4 1 4 5 6 7 10 11 13 12 12 14 12 9 15 10 4 6 9 7 7 10 12 10 9 9 9 9 12 13 12 11 10 9 8 8 8 8 8 8 7 8 8 7 8 7 6 7 7 6 6 7 8 8 7 5 7 6 5 5 5 5 5 5 5 6 5 6 7 6 6 6 6 6 6 5 5
3 4 3 4 1 1 3 1 1 2 1 0 2 1 1 3 2 7 2 5 2 4 4 3 8 10 10 9 9 10 12 14 16 13 4 5 7 9 11 7 9 12 9 11 11 10 9 10 11 12 12 11 10 9 9 9 8 9 8 8 7 8 8 7 7 7 6 7 7 7 6 6 7 7 7 7 5 6 6 6 5 5 5 5 5 6 5 6 5 6 6 7 6 6 6 4 6
5 7 3 5 7 1 0 1 1 1 0 0 3 1 1 3 1 9 1 5 2 4 4 5 5 6 8 8 9 9 10 12 7 5 13 11 12 13 13 13 15 12 12 14 12 9 9 12 12 12 12 11 11 11 9 10 10 9 9 8 8 7 8 8 8 7 7 7 7 7 6 6 6 7 8 7 7 7 6 6 6 6 6 5 5 6 6 5 6 5 5 5 5 6 6 5 4
3 2 2 4 6 1 3 1 0 1 0 0 0 1 1 0 7 5 0 4 2 1 5 4 5 6 5 5 6 6 12 8 6 8 13 14 12 10 14 14 13 12 11 11 10 9 12 11 11 12 12 11 12 12 10 9 9 9 9 9 8 7 8 8 8 8 8 7 8 9 8 7 6 8 7 8 8 7 6 6 6 5 6 5 5 6 7 6 6 6 6 5 6 6 7 6 4
2 6 4 3 3 3 1 0 1 1 1 0 1 2 7 9 14 3 2 4 1 1 4 6 6 5 5 5 7 8 7 5 9 13 13 12 11 10 13 12 10 10 9 7 7 12 10 8 9 8 11 12 13 12 10 8 9 9 8 8 9 8 8 8 9 8 8 8 8 9 9 8 7 7 9 8 8 8 6 6 7 6 5 5 6 7 7 6 6 7 6 6 5 6 7 6 6
4 1 4 1 1 3 2 0 0 4 0 0 2 3 6 6 7 6 4 1 3 5 7 6 6 6 5 5 5 8 9 9 14 14 13 11 9 8 12 9 9 10 7 7 12 12 10 10 9 8 10 11 11 11 11 10 9 8 8 8 9 10 8 8 8 9 8 8 8 8 9 9 9 9 9 9 8 8 8 7 6 6 6 6 6 6 8 6 6 7 7 7 6 5 5 5 4
3 5 2 2 3 4 6 1 4 4 0 4 4 1 8 9 10 5 3 2 4 7 6 5 6 6 6 5 6 8 10 8 10 9 11 11 9 10 10 12 10 10 12 11 9 8 11 10 10 10 10 12 12 12 10 9 9 9 8 8 9 11 9 9 8 9 8 8 8 8 10 10 10 9 9 9 8 9 9 8 7 6 7 6 6 6 7 8 7 6 5 7 9 6 6 5 5
4 2 1 2 0 4 4 1 1 0 1 3 2 5 4 4 4 3 2 4 2 2 5 5 6 7 7 7 7 7 8 7 8 11 12 11 10 11 11 11 11 13 11 10 11 10 10 11 11 12 13 13 12 11 10 8 8 8 10 9 9 9 9 9 8 8 9 9 9 9 10 10 10 10 10 10 9 9 8 9 8 9 8 8 7 7 7 7 8 8 6 5 5 8 7 7 5
3 2 1 3 3 2 2 4 1 0 1 3 2 1 6 5 8 6 6 2 4 3 5 6 6 6 7 6 6 8 8 9 11 11 14 12 12 13 13 11 11 11 10 12 11 13 14 12 12 13 12 11 11 11 10 9 8 8 7 8 9 9 10 9 9 9 10 11 10 9 10 10 10 11 11 10 8 10 10 10 9 10 9 8 8 8 7 7 7 9 9 5 6 7 7 8 7
8 3 2 1 0 2 3 1 1 2 2 3 1 2 11 12 10 11 10 0 3 7 8 8 8 6 7 6 7 8 9 10 15 11 10 9 11 11 10 10 9 9 9 11 10 10 8 9 10 11 11 10 10 9 9 7 7 7 6 7 8 9 8 8 9 8 8 8 11 13 12 11 12 12 13 12 9 8 7 9 10 11 10 9 9 8 8 9 8 8 10 8 5 3 6 6 8
8 9 6 4 4 3 2 4 2 2 1 3 3 6 9 11 10 11 11 2 2 7 7 8 9 9 9 9 8 8 10 13 13 7 6 5 8 9 9 8 7 7 7 7 10 8 10 8 8 9 10 10 8 7 7 7 6 7 8 5 7 8 8 6 7 9 7 7 7 10 11 11 11 11 12 13 12 10 9 9 10 11 10 10 10 10 10 11 13 12 11 12 10 6 5 7 8
5 4 5 4 5 2 3 3 2 0 1 5 5 5 6 11 11 12 12 5 5 7 11 12 11 11 11 11 11 11 11 16 5 5 7 8 8 8 8 7 7 6 6 8 9 10 11 12 11 12 11 9 10 9 9 9 9 7 6 9 9 7 7 7 7 6 8 8 8 8 9 10 12 12 12 12 11 11 11 10 10 10 10 11 11 12 12 10 9 10 9 7 13 11 7 6 6
6 6 5 1 1 2 0 0 3 3 1 2 2 2 9 12 12 13 11 6 11 13 13 13 14 13 12 12 13 12 13 6 6 7 6 5 5 6 5 6 6 8 10 10 12 15 13 11 12 12 8 9 11 12 11 10 10 11 10 9 7 6 6 7 8 7 7 6 7 9 9 8 9 13 13 13 12 12 11 10 10 12 11 11 11 11 11 10 10 9 10 8 5 11 10 11 10
3 6 4 3 3 3 4 1 2 2 2 7 3 5 10 9 11 12 11 14 11 9 9 13 11 11 10 11 11 10 8 13 8 9 6 7 6 4 5 6 8 11 9 11 11 8 8 10 11 9 10 11 11 10 9 11 8 6 7 6 8 4 3 3 4 3 4 5 5 6 8 9 9 8 9 11 12 11 11 12 13 12 11 10 9 9 11 12 12 13 14 14 10 4 5 9 12
5 5 4 5 2 2 2 2 1 3 1 2 3 7 14 6 7 13 14 10 8 7 9 12 10 13 15 12 8 9 11 11 12 10 10 7 5 4 4 6 9 7 6 7 7 11 10 10 9 9 10 10 9 10 10 8 6 4 3 3 4 5 4 2 2 0 3 4 7 6 5 7 10 10 10 9 8 9 10 9 8 12 14 13 12 12 13 14 13 11 11 11 12 11 7 10 11
1 3 3 3 2 2 3 1 1 1 1 2 3 5 11 3 4 4 4 2 3 8 6 8 10 11 12 7 6 8 12 10 10 8 9 7 6 7 8 7 4 7 8 9 10 11 10 12 11 11 10 10 9 8 8 6 6 4 4 5 5 4 2 3 4 5 5 4 4 6 8 4 5 9 9 11 11 11 10 10 10 10 11 13 12 12 12 15 16 15 16 14 16 15 11 8 11
0 4 5 4 5 5 0 2 2 4 2 3 2 3 5 4 6 9 10 6 8 3 4 12 9 6 5 8 12 9 9 8 9 10 8 6 7 6 3 5 7 8 9 10 8 8 6 6 6 7 6 6 8 8 8 8 8 9 7 6 5 4 6 6 9 10 7 7 8 4 4 7 7 6 8 11 11 11 12 12 12 11 10 9 9 10 10 10 12 14 15 14 15 12 13 12 13
3 5 4 3 6 5 5 2 3 0 1 1 2 3 7 6 6 7 8 6 11 13 8 13 13 7 5 7 7 8 8 8 6 7 6 6 7 5 5 7 8 8 9 4 4 5 5 6 7 8 8 7 7 7 8 8 7 7 10 11 10 11 11 9 7 6 8 7 5 7 6 6 7 8 7 8 10 12 11 11 12 13 13 12 11 11 12 14 15 16 14 13 15 12 11 12 15
3 1 5 6 7 6 5 4 3 1 1 3 2 2 2 9 10 3 3 4 9 10 13 11 11 6 3 5 8 9 8 6 6 7 6 6 6 7 9 8 6 7 2 4 5 5 7 8 8 8 6 6 6 7 8 9 10 9 8 8 9 10 11 10 7 7 6 6 7 8 7 6 7 7 7 7 7 9 11 13 14 14 14 13 13 13 15 14 12 11 13 15 13 13 16 16 15
2 2 5 5 6 4 5 4 4 1 1 8 2 0 0 6 10 4 1 5 6 9 12 12 9 5 6 7 7 8 8 6 5 6 6 6 7 7 5 3 3 2 4 5 6 5 5 5 6 5 6 6 6 8 9 8 9 10 10 9 9 8 7 5 5 6 6 5 8 7 7 7 6 6 5 5 5 9 9 9 9 10 11 13 13 13 13 13 17 17 15 13 13 11 12 12 13
1 6 7 7 7 6 4 4 2 1 1 7 2 3 2 8 8 7 2 1 6 10 11 9 9 10 9 8 7 7 6 5 5 7 6 6 4 1 1 1 2 4 3 3 4 4 5 5 6 7 7 6 6 7 8 8 7 7 8 8 11 9 6 4 4 6 6 5 8 8 8 7 6 5 5 5 5 5 8 11 12 14 15 15 13 14 13 12 12 15 18 18 16 16 13 13 16
9 5 8 6 8 4 3 7 2 2 2 6 5 3 2 6 6 8 4 5 7 4 6 6 7 7 6 5 6 4 3 3 3 4 5 5 3 2 0 2 2 1 2 4 4 4 4 5 5 6 6 5 6 7 8 9 8 7 10 10 11 10 8 6 6 5 4 4 7 7 7 7 6 7 5 6 6 6 6 7 10 12 10 8 10 13 14 13 13 12 12 13 13 15 13 14 12
5 3 4 5 2 6 3 4 5 1 6 5 2 3 2 7 6 7 8 5 3 4 5 8 9 8 7 4 3 2 2 2 1 0 1 1 0 1 1 2 1 2 2 2 3 3 4 4 5 6 4 5 5 6 7 7 8 8 8 9 10 9 8 8 10 10 9 10 8 8 6 6 7 7 6 7 7 6 6 6 7 8 11 11 11 10 11 11 11 12 11 13 14 15 12 11 12
5 6 7 6 2 4 3 2 2 5 6 1 2 2 1 13 10 6 8 9 7 7 8 7 6 8 6 5 6 4 3 2 1 0 0 1 2 3 2 1 1 2 3 3 4 4 4 4 5 7 7 6 6 6 8 8 8 9 9 8 8 7 7 8 10 10 7 9 7 7 6 8 7 8 9 9 10 8 6 6 6 8 9 10 12 12 13 12 10 11 11 14 14 16 15 15 13
4 7 6 5 1 1 3 4 1 6 5 4 2 1 5 5 5 14 16 12 2 5 7 6 6 7 8 7 6 5 4 3 2 3 3 2 2 3 2 2 2 2 2 3 3 4 4 5 5 7 7 6 6 7 8 8 9 8 7 8 8 7 8 8 9 9 8 7 7 8 8 8 8 10 9 11 9 9 9 8 7 8 10 10 11 12 12 12 12 12 12 13 14 13 13 15 15
7 1 9 9 8 5 4 3 5 6 4 2 5 2 7 1 2 2 7 10 6 6 6 5 5 7 7 7 8 8 5 3 3 3 4 4 4 2 2 2 3 3 3 3 4 4 4 4 5 6 5 5 7 8 6 8 8 8 8 8 8 7 9 8 8 7 7 8 7 8 8 7 9 8 9 8 6 8 8 10 11 10 10 11 11 12 12 11 11 10 10 11 11 11 13 13 13
0 3 6 5 7 6 1 4 2 0 2 2 1 6 4 5 3 9 6 7 8 5 7 3 6 4 4 5 6 6 2 3 4 5 5 5 5 3 2 3 3 3 4 4 4 4 5 6 5 5 6 5 6 7 8 9 9 8 8 9 9 8 7 6 6 6 7 7 8 9 9 9 8 8 7 6 7 8 9 9 10 12 11 11 11 12 12 11 12 12 11 12 13 10 12 14 13
4 4 5 5 2 8 6 2 1 1 4 8 2 8 8 8 7 10 8 5 8 4 5 4 6 5 4 6 2 4 5 4 6 6 6 3 2 3 4 4 4 3 4 5 5 5 6 6 6 6 6 5 7 8 8 7 7 7 9 9 8 8 8 9 10 9 9 8 8 8 9 9 8 7 7 6 7 8 9 10 10 12 11 10 11 12 12 12 12 12 12 13 14 13 12 14 13
8 3 8 2 2 4 4 4 2 2 4 8 2 9 5 3 10 5 2 4 8 7 7 5 6 5 6 7 0 1 6 6 5 6 5 5 4 5 4 4 4 4 4 4 5 4 4 4 5 6 5 8 7 6 8 8 8 9 9 9 9 10 10 11 10 9 7 7 8 8 7 8 8 8 7 7 7 8 8 9 10 11 11 10 11 10 11 12 12 12 13 14 14 12 13 11 12
4 4 4 7 4 2 2 4 3 1 2 6 4 3 6 9 10 2 0 6 8 9 8 5 7 6 7 7 2 3 4 5 6 5 5 5 5 5 4 4 3 3 4 4 4 4 4 4 4 5 6 6 5 6 6 6 7 8 8 9 9 10 9 9 9 8 7 9 10 8 9 9 7 7 7 7 8 8 8 8 9 10 10 11 10 10 10 11 12 12 12 12 12 12 12 13 13
2 3 4 1 3 2 4 6 3 5 4 1 9 3 10 6 6 8 8 7 9 9 7 9 10 7 5 8 1 1 4 6 4 4 4 5 6 5 5 5 4 4 4 4 4 3 5 5 4 5 5 4 5 7 7 8 8 7 7 6 7 8 9 9 9 8 9 11 10 9 9 8 9 7 8 8 8 8 8 9 8 9 10 10 10 10 10 11 11 12 12 11 12 12 13 14 13
2 2 2 0 1 2 4 1 4 5 5 6 3 8 7 7 7 8 11 9 8 8 10 10 10 10 7 2 0 3 6 4 3 4 4 4 6 6 5 5 5 4 3 3 4 5 5 4 5 5 6 7 7 7 6 9 5 8 7 10 9 8 10 8 7 8 10 10 9 9 9 9 6 9 7 9 9 9 9 9 9 10 10 10 10 9 8 9 10 11 11 12 11 12 14 13 12
12 12 11 12 9 4 5 8 2 2 3 5 4 11 7 4 3 8 6 9 9 9 8 7 9 8 6 4 4 6 3 3 4 3 3 4 5 6 6 3 2 3 5 6 5 4 4 5 5 4 5 7 8 8 8 7 5 6 8 10 10 7 7 6 8 9 11 11 9 9 8 5 9 9 8 10 10 9 9 9 10 10 10 10 10 10 8 8 9 11 12 11 11 12 12 13 12
Wind_Direction
323 356 351 74 65 101 51 2 148 319 60 17 72 71 192 52 198 88 152 360 85 266 214 18 70 57 200 201 167 147 154 137 197 133 213 234 279 147 140 130 123 141 151 139 159 154 147 133 139 139 133 127 123 118 113 108 103 100 98 95 95 94 93 91 89 87 88 89 92 93 91 93 94 86 87 89 92 90 92 93 91 92 92 96 95 92 86 83 82 82 82 81 85 91 89 83 81
317 360 46 49 33 48 229 125 100 358 38 60 239 98 246 305 76 201 170 184 191 138 106 106 93 90 64 83 113 125 46 357 192 192 254 319 100 123 142 140 141 150 155 142 157 139 144 138 143 140 133 131 128 124 117 114 109 105 101 99 97 97 97 94 92 91 92 94 95 96 95 93 82 76 82 91 91 90 92 93 93 94 94 95 95 92 86 84 84 86 87 88 87 90 92 89 86
348 39 65 38 25 71 87 33 268 35 104 169 264 209 341 127 180 212 218 196 170 148 172 120 104 65 42 53 28 18 212 339 141 235 113 144 129 197 157 144 149 144 148 156 153 150 137 148 151 142 136 134 131 126 123 120 117 114 109 106 104 102 100 99 98 99 97 97 98 98 97 94 86 85 85 87 89 91 91 92 92 95 99 100 99 94 90 87 86 87 88 91 94 93 91 92 90
91 32 147 74 251 29 62 32 89 128 130 203 287 269 178 180 217 206 229 229 174 128 268 350 54 273 93 50 151 97 53 119 236 159 138 172 202 149 151 148 146 140 142 158 157 151 147 168 164 145 141 138 135 131 128 125 124 118 113 108 108 106 103 101 100 101 101 101 101 100 96 93 91 87 83 84 87 89 91 90 92 99 102 102 99 96 91 89 88 87 90 93 96 97 96 93 91
66 354 87 102 105 360 104 138 140 99 161 197 176 267 253 207 194 200 234 243 265 230 208 157 74 340 354 128 138 191 216 238 200 173 134 173 122 149 145 145 145 149 156 159 154 154 168 175 168 149 146 143 140 134 132 130 127 123 117 115 113 109 106 106 105 104 103 104 103 99 97 95 90 89 91 95 96 95 94 94 95 100 103 102 99 93 89 88 89 89 90 95 92 95 98 96 92
55 48 4 91 345 157 57 74 72 167 219 149 128 227 217 206 186 182 185 273 239 235 195 73 156 193 15 315 174 129 191 125 189 245 163 214 151 149 148 144 148 158 162 158 159 157 171 183 162 154 150 145 143 138 135 133 130 125 122 120 116 110 107 107 107 105 105 105 104 97 96 102 98 92 93 91 91 93 94 97 98 101 103 103 101 96 91 90 91 90 88 91 95 90 92 95 93
247 48 355 23 41 48 186 137 182 181 250 158 193 191 187 207 221 133 158 115 241 61 183 165 124 90 69 297 11 251 208 188 117 213 159 157 141 146 147 152 150 158 161 161 155 163 176 180 163 157 149 146 145 141 139 137 135 132 127 121 116 111 110 109 108 107 105 105 105 100 97 98 98 98 96 95 96 97 93 92 97 100 103 103 100 97 92 94 92 93 92 91 93 92 89 89 90
53 135 295 112 232 47 44 179 197 167 4 181 232 156 192 200 174 162 167 105 201 115 16 116 49 101 262 18 170 263 347 179 220 271 130 136 143 146 152 151 153 158 164 163 160 162 177 177 168 156 152 149 146 146 144 141 140 137 131 125 120 116 116 114 109 109 109 107 108 104 102 102 102 100 98 96 93 94 96 97 97 99 103 104 103 97 94 94 96 98 99 97 94 95 93 92 90
357 87 324 69 57 17 60 59 293 229 294 273 263 300 176 178 167 140 128 248 15 15 104 190 240 95 232 65 144 275 297 300 308 177 129 138 148 152 152 154 157 159 161 161 160 163 172 182 170 158 154 152 153 153 151 145 145 142 137 131 127 123 122 117 113 110 109 110 109 106 102 103 107 114 105 100 98 96 99 99 100 102 106 107 105 100 94 93 98 101 103 102 98 96 96 93 94
36 60 290 127 131 54 24 313 92 201 244 240 180 191 168 183 181 108 142 93 163 109 218 354 133 79 134 133 359 338 73 350 89 114 137 148 149 152 154 162 161 157 163 164 162 167 166 180 169 159 157 154 159 159 153 149 149 147 143 136 131 129 127 123 119 114 111 110 110 107 104 103 106 108 112 109 110 107 105 101 103 107 113 112 104 98 90 92 96 101 102 102 100 97 98 95 92
349 14 136 79 26 98 154 231 266 320 284 321 276 243 233 136 127 108 62 163 49 146 177 203 26 128 85 258 209 253 297 310 156 158 158 155 151 155 158 161 162 160 163 165 164 162 168 173 167 161 156 159 163 159 152 152 154 151 145 139 135 134 133 130 124 120 118 117 116 113 111 111 110 109 108 105 104 109 108 110 110 112 118 113 109 99 90 91 94 97 101 101 99 96 93 90 84
4 24 11 99 173 155 224 167 246 275 292 328 222 154 192 149 109 113 131 127 228 188 164 142 213 146 64 345 294 301 325 218 197 153 146 146 157 159 154 153 160 165 161 162 162 166 167 166 161 166 160 162 168 157 151 155 154 149 145 141 139 139 138 133 127 125 124 123 121 119 117 117 115 113 112 112 113 115 117 118 114 115 120 116 111 100 90 91 94 96 100 99 93 88 86 84 82
110 101 82 91 221 146 189 114 225 304 346 269 185 206 130 119 184 171 175 112 98 134 302 217 131 92 138 188 256 307 277 221 207 149 140 144 154 151 143 151 165 164 162 161 167 169 167 163 162 166 167 165 161 154 154 154 151 148 145 143 142 142 140 137 133 131 130 128 127 124 117 114 114 115 112 112 112 112 114 114 116 119 122 118 105 95 90 92 94 94 94 92 90 88 86 83 79
116 180 124 205 48 120 139 177 332 149 256 244 266 143 161 143 250 171 127 133 203 163 248 186 145 133 111 16 295 251 230 205 193 154 127 124 127 145 149 153 160 164 166 166 173 170 170 167 166 167 165 163 156 153 158 154 152 152 149 143 142 142 143 139 136 135 134 128 117 110 110 112 114 115 114 114 113 111 113 115 116 120 121 119 102 97 96 95 94 94 93 92 91 89 86 83 78
120 141 82 115 79 141 231 123 203 160 221 184 195 137 173 287 119 149 159 151 241 209 342 92 175 120 234 151 273 205 202 198 174 145 119 109 111 144 152 155 163 163 169 178 173 172 175 169 170 164 166 162 155 155 157 156 155 153 148 145 143 142 140 136 136 132 123 120 113 106 100 93 91 95 97 99 99 100 102 108 116 120 122 120 106 101 102 98 96 95 91 91 90 87 84 80 78
140 86 78 110 266 140 225 143 74 100 245 171 168 149 115 341 194 140 257 141 202 3 348 192 30 196 222 164 236 215 182 168 152 125 120 112 96 128 155 161 165 169 175 182 180 183 175 173 168 166 168 163 157 157 155 153 156 152 149 147 145 140 137 135 129 123 120 112 108 105 102 97 92 92 94 93 94 94 98 104 117 122 122 119 103 106 105 103 100 97 94 89 87 84 79 75 73
82 78 56 37 232 170 227 147 142 206 241 228 275 164 153 203 209 243 81 97 130 191 39 306 198 2 189 221 288 260 159 129 121 123 122 126 129 143 157 162 159 158 173 189 186 185 183 178 169 174 173 163 157 155 152 151 158 150 148 146 141 139 135 130 123 116 111 109 107 106 101 98 98 96 91 97 93 96 104 110 119 125 125 114 108 106 100 99 101 95 90 88 84 80 74 68 63
56 83 114 99 205 139 205 172 188 207 138 204 178 198 118 148 176 221 79 32 55 14 84 312 317 10 257 275 289 177 141 141 148 143 161 155 159 164 172 180 168 183 170 179 193 189 184 187 173 177 168 166 159 159 157 150 153 150 143 143 139 135 129 124 122 122 118 115 111 104 103 104 103 100 100 100 99 98 97 100 105 113 116 109 109 107 102 99 95 95 92 89 86 80 71 69 63
97 113 94 213 189 234 147 204 198 124 245 176 177 188 153 196 139 228 117 270 77 116 296 16 327 308 359 14 101 136 143 149 157 165 168 175 178 180 174 177 184 171 190 187 185 190 190 182 182 181 177 167 164 162 159 153 152 147 147 142 134 131 134 130 129 126 127 125 115 109 108 109 108 103 104 108 107 104 103 105 111 117 111 102 104 103 99 96 95 94 90 86 83 76 70 68 67
211 123 206 251 205 225 220 180 210 212 112 150 153 208 146 191 137 172 179 181 96 188 193 320 287 250 326 69 137 142 147 160 169 172 182 186 188 185 184 190 186 196 192 191 183 186 187 190 184 182 179 171 168 165 156 156 159 153 154 148 140 137 136 135 135 135 134 132 127 120 115 114 108 107 106 104 102 99 98 82 79 78 76 77 83 85 86 89 89 85 86 83 75 72 77 67 73
211 85 166 225 197 121 244 172 238 245 167 165 141 80 140 248 194 145 168 123 252 264 234 176 199 212 190 187 165 161 154 164 180 186 188 191 197 197 197 196 194 194 192 175 181 188 189 187 185 186 181 175 174 170 162 145 161 157 158 151 148 148 140 138 141 140 138 135 130 126 120 113 111 110 109 102 101 102 93 94 86 83 86 87 87 87 87 82 79 83 76 72 73 79 77 63 72
91 209 200 189 164 31 209 190 215 196 161 112 134 134 204 85 69 117 152 166 215 211 226 218 202 174 157 173 188 171 168 172 185 189 194 192 192 196 200 209 207 201 171 186 191 188 188 188 188 183 182 181 180 172 161 167 167 167 165 157 155 155 151 149 147 149 142 139 136 131 122 116 116 116 118 117 115 113 107 105 103 107 100 102 103 102 94 96 90 91 89 83 74 76 78 74 57
178 313 234 207 210 160 322 108 286 150 117 134 141 199 97 143 206 199 179 196 232 223 225 208 198 180 177 159 154 173 178 184 190 195 194 196 201 203 201 200 195 198 191 199 187 189 185 187 188 185 187 181 184 172 171 171 177 172 169 163 161 164 158 156 161 159 155 146 144 145 137 135 131 134 130 133 131 126 120 119 119 116 118 115 115 114 104 98 102 97 93 91 89 87 81 78 72
107 187 202 53 187 209 45 22 7 118 125 180 197 87 139 154 202 119 203 241 229 236 272 247 159 127 135 150 181 178 185 186 196 199 195 197 196 199 196 195 202 200 202 201 195 190 186 189 185 186 189 184 183 176 176 180 179 173 175 164 170 165 162 168 168 165 156 154 153 157 148 146 146 144 146 143 145 133 133 127 124 118 118 118 116 114 115 108 105 103 104 99 95 85 89 83 82
101 195 196 218 82 296 352 55 42 69 61 344 113 132 237 170 162 75 245 243 253 246 39 93 135 143 160 168 179 193 196 204 210 210 215 225 219 219 224 221 207 203 211 205 198 196 195 189 184 188 187 187 185 179 181 184 182 175 175 176 178 167 175 173 170 161 164 159 161 159 157 148 149 147 152 155 145 142 134 132 130 129 123 127 123 114 122 123 115 118 113 110 103 101 93 81 84
171 180 129 71 49 341 351 20 36 29 49 68 87 312 310 245 247 248 240 251 246 131 70 111 126 146 172 186 188 186 195 202 205 206 212 208 204 204 221 209 202 210 211 206 200 204 196 191 190 191 189 187 185 183 185 187 187 182 181 183 181 169 181 173 165 171 169 163 169 172 170 159 158 156 153 154 152 148 142 133 131 137 134 139 131 127 133 125 128 121 117 115 112 108 104 100 90
145 82 95 97 301 26 6 114 338 338 95 304 137 275 264 330 58 276 305 272 339 132 111 131 146 174 190 192 195 202 197 203 203 205 202 213 215 212 220 213 213 217 203 213 209 204 195 193 200 191 193 187 186 189 186 189 189 188 183 183 183 180 178 173 173 174 172 172 174 171 171 168 154 153 152 157 156 148 146 144 146 142 137 147 137 128 127 127 124 125 130 128 123 115 104 105 107
90 135 93 18 346 100 79 64 352 6 41 62 135 171 305 306 76 236 210 333 356 187 171 154 184 191 197 203 200 206 212 218 208 170 206 201 212 210 211 208 215 209 201 213 210 198 195 201 200 194 193 187 189 193 188 189 192 188 181 181 190 184 178 181 177 177 180 175 171 172 172 168 162 156 155 159 158 154 153 152 153 151 155 150 142 134 128 124 122 116 110 109 108 107 104 92 90
137 100 96 317 2 23 350 129 315 15 188 241 157 103 296 97 227 236 100 1 35 203 233 212 214 220 215 214 216 213 218 214 199 212 218 214 214 210 216 215 211 207 217 213 205 198 204 201 201 199 193 192 191 194 193 193 190 186 181 184 187 185 185 183 185 182 182 179 173 177 174 169 169 162 164 164 160 158 155 154 158 161 157 153 144 136 127 121 115 110 97 101 101 101 101 91 81
115 38 117 30 8 343 305 305 352 110 231 89 201 263 267 252 246 244 300 13 40 319 264 247 242 236 227 209 217 228 236 217 214 219 222 220 218 213 221 221 212 212 212 206 195 208 203 201 203 198 197 194 198 194 193 194 191 188 180 180 182 189 191 189 190 186 182 183 177 180 176 174 174 170 164 170 162 155 159 161 162 162 161 154 144 140 134 137 129 125 126 115 115 119 118 118 117
135 218 57 92 74 257 306 89 308 153 301 310 94 192 285 273 278 277 282 30 171 226 243 245 243 247 241 224 222 229 234 218 220 221 225 226 225 224 226 230 215 213 205 202 204 205 195 201 196 204 197 199 196 199 193 194 189 185 182 180 182 188 196 198 188 189 184 185 180 183 181 177 180 173 172 167 169 162 161 163 171 168 159 154 150 153 141 139 136 139 142 128 123 113 113 109 107
27 78 279 327 157 278 295 280 160 162 330 46 87 322 244 272 285 292 304 341 161 218 243 264 264 256 246 235 232 239 239 226 239 242 237 235 227 228 223 227 212 209 209 207 205 192 200 200 196 203 198 203 200 201 197 194 192 186 183 185 183 185 195 201 193 189 186 183 185 186 187 180 182 176 174 172 169 171 167 170 171 162 163 155 153 152 146 146 144 139 150 144 135 132 124 109 98
359 94 243 219 97 258 337 123 301 266 120 5 154 220 322 316 269 277 317 64 121 219 276 268 266 262 260 246 234 240 256 249 236 234 234 227 228 226 227 226 214 212 208 201 199 193 200 199 197 201 201 203 201 202 200 195 193 197 187 187 188 186 193 201 198 190 188 189 187 188 189 183 186 179 178 178 174 175 175 167 166 167 163 161 159 159 156 155 150 147 149 155 142 140 135 123 110
252 37 158 212 167 236 261 304 287 359 87 209 19 207 236 251 286 287 304 58 23 335 285 275 258 251 252 252 248 246 245 249 241 230 229 219 224 220 224 222 218 210 207 205 200 195 199 192 196 201 201 200 200 199 200 196 198 200 202 195 192 196 199 198 198 197 197 187 185 192 186 187 190 181 181 181 183 181 176 170 164 166 168 164 162 164 165 157 156 155 149 147 144 142 141 140 130
198 192 112 264 285 209 227 135 192 111 13 187 339 257 273 271 278 289 284 232 316 281 264 271 278 266 256 246 248 246 245 245 246 236 229 220 226 227 225 224 219 209 208 205 199 202 196 195 195 201 199 195 198 196 196 193 192 206 209 202 200 199 200 198 191 197 202 197 190 185 187 189 191 188 182 182 184 181 182 170 164 171 169 167 163 166 164 165 162 165 155 140 127 118 139 135 131
184 175 175 147 148 211 214 241 284 171 144 234 206 219 253 268 282 282 284 321 268 271 292 288 274 267 263 253 242 239 240 247 246 248 242 226 219 222 222 220 218 211 208 197 200 196 197 195 194 197 199 193 189 189 181 185 186 198 206 214 213 208 203 200 201 195 192 201 202 190 188 192 193 191 187 184 183 177 178 176 172 172 175 170 169 172 174 178 174 165 164 151 139 112 100 127 133
111 84 106 172 170 273 279 284 275 335 112 239 231 251 267 275 268 269 275 306 307 284 274 263 260 261 260 259 251 247 245 243 254 235 232 227 226 220 219 205 208 201 202 194 194 199 197 195 185 198 194 185 181 184 188 188 192 198 211 207 213 204 206 204 207 209 197 197 197 197 193 198 192 194 190 186 188 179 179 174 173 178 181 180 177 183 184 181 174 163 149 151 147 139 138 148 149
138 137 137 174 183 172 189 81 354 326 155 292 37 316 261 257 269 270 276 288 266 254 258 259 253 247 249 249 255 249 252 292 290 281 266 258 241 233 214 203 184 187 209 193 197 201 199 193 193 196 179 186 192 191 189 192 196 198 194 206 204 199 199 200 209 209 210 195 195 199 198 205 204 197 193 189 188 183 177 173 177 181 182 189 192 180 172 168 167 161 151 143 175 157 155 167 166
58 145 162 118 254 246 287 260 346 331 83 267 1 334 274 259 259 265 258 253 246 234 233 247 253 261 251 246 247 260 272 266 273 259 269 260 254 239 207 206 205 207 201 197 204 190 191 194 199 190 186 187 195 192 186 198 197 193 190 191 191 202 217 206 217 208 196 198 199 205 203 201 200 205 202 192 189 187 186 178 179 178 189 188 181 174 169 173 179 174 170 163 159 169 146 171 176
109 98 113 191 242 130 258 289 346 6 72 303 337 319 287 265 261 256 255 249 266 260 246 253 245 253 256 250 236 244 249 256 260 261 263 260 247 242 215 212 210 203 194 198 192 195 194 197 194 189 188 191 191 194 194 196 176 147 124 139 166 161 181 151 142 104 207 211 212 199 216 206 200 198 190 193 193 188 181 186 192 184 182 184 189 183 180 182 179 177 177 170 158 153 170 185 196
355 129 131 124 157 221 146 231 322 331 41 62 357 311 292 342 327 322 294 320 296 278 291 266 259 243 255 276 273 231 242 241 249 261 260 261 264 240 214 218 181 196 203 199 195 195 193 196 194 189 185 189 192 187 185 156 124 105 91 65 73 81 54 147 190 220 212 216 222 210 210 212 216 198 192 191 194 192 190 184 183 196 196 190 186 189 191 189 179 180 182 171 173 168 172 179 197
326 228 174 189 172 141 259 19 99 20 344 346 57 334 300 297 301 250 272 329 309 252 315 286 260 245 244 247 248 254 250 243 234 243 243 237 241 260 233 203 193 207 208 209 199 197 186 187 180 182 179 181 185 182 173 161 168 164 156 154 162 178 198 192 205 207 200 206 213 207 214 208 212 217 202 196 197 196 191 186 185 184 194 193 192 187 185 192 187 183 187 181 181 184 170 169 187
122 255 164 152 142 127 129 104 75 312 175 335 37 155 272 312 279 280 293 333 297 302 289 276 286 259 231 242 248 251 241 253 253 257 258 252 251 255 249 213 209 206 219 172 173 183 179 175 180 180 182 183 177 172 168 167 171 178 185 191 196 199 208 218 212 205 201 203 193 200 211 214 217 217 223 210 198 194 192 188 186 188 190 193 193 189 194 196 193 191 185 188 187 170 161 178 188
216 245 121 108 106 131 158 115 135 202 257 298 39 111 225 305 289 229 338 317 295 303 288 282 268 297 270 240 239 244 250 244 244 252 258 244 239 217 223 219 205 217 159 152 172 172 181 180 176 182 178 175 176 166 173 180 181 185 190 202 203 209 211 216 194 205 200 185 200 208 204 214 214 219 222 218 212 205 202 200 196 190 190 192 189 199 200 199 194 193 193 195 187 182 176 178 184
223 204 127 128 137 147 119 92 110 119 40 280 334 251 258 250 266 305 319 311 295 280 274 270 285 310 273 259 255 254 250 243 232 249 255 248 229 224 235 233 232 176 166 176 183 181 173 164 167 164 173 171 173 173 177 189 189 187 193 196 210 220 214 212 181 188 197 199 210 212 213 215 216 220 218 219 221 207 197 197 194 199 198 197 195 205 210 202 194 186 186 192 194 194 193 189 176
250 131 88 89 78 69 91 104 80 347 47 268 217 198 210 277 276 320 339 278 275 255 264 286 287 286 282 274 269 260 272 272 254 246 256 267 268 292 224 182 167 199 183 161 147 145 156 155 163 170 181 175 173 177 182 188 192 184 193 202 211 216 206 194 166 193 203 198 218 218 220 220 220 219 219 221 220 236 215 198 197 202 202 198 196 203 205 207 207 202 195 193 188 188 195 192 192
131 103 84 36 41 29 26 59 87 59 283 253 235 245 153 287 266 229 201 219 206 266 302 284 297 311 302 263 256 277 281 286 272 245 251 266 281 245 204 165 196 163 145 147 152 156 157 161 166 177 187 173 172 180 181 191 192 192 201 203 209 213 204 195 199 216 203 211 223 223 221 225 218 222 217 220 223 216 214 216 207 199 206 222 210 194 200 203 204 207 205 192 192 197 199 198 202
123 95 118 85 1 13 32 347 36 143 265 266 259 214 126 203 291 277 245 266 226 203 263 292 306 308 301 311 331 312 300 310 328 333 265 318 110 52 101 153 159 180 135 147 149 145 154 161 163 178 184 180 177 179 185 197 196 205 211 208 213 215 200 202 210 215 204 211 211 218 215 225 231 232 227 229 225 215 220 215 216 215 205 200 208 212 204 206 203 200 196 201 202 201 202 202 207
81 88 64 108 241 38 270 15 246 213 215 235 331 215 343 240 226 261 284 268 254 216 221 244 260 288 303 352 2 332 322 337 354 319 289 215 202 191 163 189 171 164 189 181 175 167 163 166 174 182 200 185 183 180 191 198 201 209 208 212 219 213 212 213 217 224 210 214 209 215 200 216 215 226 228 232 237 220 215 225 219 216 216 213 209 203 206 203 202 203 206 205 204 196 199 198 199
96 129 125 101 135 72 246 277 246 308 289 269 332 245 263 265 280 233 239 252 230 218 230 237 251 261 290 311 327 327 326 323 312 302 293 281 251 250 201 193 199 206 204 192 186 175 179 181 187 195 205 184 185 188 196 200 209 209 207 212 215 207 217 214 221 222 218 214 206 215 212 211 212 218 217 225 226 236 235 232 231 231 224 215 209 208 207 204 199 202 203 205 207 208 205 203 207
205 110 151 177 145 159 213 191 205 219 210 286 281 64 234 118 247 299 253 271 289 276 259 257 252 258 261 278 298 290 291 306 291 298 277 275 274 253 246 208 205 212 205 202 192 189 179 196 196 208 208 198 190 200 197 208 212 210 210 213 213 210 216 215 222 218 217 215 212 217 218 214 218 218 215 217 210 216 232 238 242 242 232 222 211 209 206 204 202 202 204 212 213 210 212 208 211
37 153 76 93 222 135 142 210 146 242 338 356 220 216 194 182 278 295 256 287 293 276 274 260 282 280 310 303 258 266 298 282 284 278 277 260 254 266 258 248 225 206 207 202 200 190 189 205 200 213 215 204 200 202 209 208 212 208 209 212 215 214 217 220 226 219 221 212 216 213 221 216 219 217 214 205 212 207 216 225 232 239 237 225 213 208 205 202 200 200 203 206 213 210 212 208 213
225 109 205 208 139 98 91 59 16 91 36 257 151 300 281 302 303 257 286 326 295 323 295 296 284 299 294 277 299 294 277 271 259 245 246 280 293 263 237 238 229 211 208 209 209 202 201 197 199 212 219 214 206 209 212 212 218 217 219 215 211 211 213 218 220 221 218 216 217 219 220 221 218 212 213 205 211 211 214 218 227 235 236 230 218 208 204 205 201 201 205 207 212 209 210 211 210
98 191 228 170 125 112 131 219 357 62 198 267 88 240 294 38 278 340 321 287 293 298 279 280 295 283 303 275 333 240 243 241 262 273 277 278 277 271 264 245 229 220 214 217 223 216 214 206 203 211 217 222 223 214 217 213 214 220 222 221 221 217 215 218 217 221 214 217 222 222 222 224 218 211 207 209 208 215 217 216 225 234 235 229 224 215 207 205 204 207 208 211 212 206 210 215 215
147 196 194 118 239 234 312 89 250 131 264 272 291 262 262 201 248 347 350 201 243 262 273 303 286 284 259 274 150 245 288 290 269 274 291 288 281 282 281 273 265 242 233 230 232 218 219 222 218 213 225 228 232 227 228 231 223 225 222 224 221 221 222 224 223 220 211 218 223 218 220 225 220 206 210 209 211 217 218 221 222 231 235 232 224 218 211 209 206 211 212 216 213 210 212 215 217
50 81 83 97 99 159 128 199 173 125 239 69 288 44 257 190 221 193 232 213 219 233 261 263 258 246 267 262 35 255 292 276 280 292 277 278 283 285 289 287 284 271 257 246 233 221 223 222 218 228 236 233 230 224 220 230 226 228 235 230 232 228 226 224 220 213 219 225 225 217 220 221 218 208 211 207 215 216 215 222 222 226 232 234 230 224 215 213 211 214 212 214 214 209 213 216 218
88 104 179 223 19 239 115 48 142 177 176 182 256 306 267 262 210 184 211 212 214 206 227 243 255 260 238 263 189 263 251 269 280 261 278 283 281 285 283 268 254 251 251 245 222 219 222 214 227 226 229 238 237 231 219 232 217 231 233 233 232 225 230 225 226 221 227 231 229 223 222 217 204 218 199 211 215 216 218 221 223 223 227 229 230 229 221 215 213 217 217 216 215 213 215 218 217
174 170 192 180 135 150 163 249 36 106 134 228 147 254 272 262 182 208 195 223 212 219 209 234 251 266 316 300 237 219 261 280 267 280 294 297 286 263 255 271 313 314 273 243 233 221 225 222 227 227 234 242 237 236 224 232 222 230 230 237 237 234 233 229 229 228 230 233 228 224 220 210 219 218 197 212 215 214 216 220 224 225 224 226 229 229 220 217 219 218 219 215 217 214 218 221 217